Weather History for Lancaster, OH

Change the Weather History Date:

Wednesday, January 16, 2013

  Actual Average Record
Temperature  
Mean Temperature 32 °F -  
Max Temperature 35 °F 33 °F 61 °F (1953)
Min Temperature 30 °F 13 °F -17 °F (2009)
Degree Days  
Heating Degree Days 32    
Moisture  
Dew Point 26 °F    
Average Humidity 79    
Maximum Humidity 86    
Minimum Humidity 72    
Precipitation  
Precipitation 0.00 in - - ()
Sea Level Pressure  
Sea Level Pressure 30.03 in    
Wind  
Wind Speed 4 mph (West)    
Max Wind Speed 10 mph    
Max Gust Speed -    
Visibility 7 miles    
Events Snow    
Averages and records for this station are not official NWS values.
T = Trace of Precipitation, MM = Missing Value Source: NWS Daily Summary

Daily Weather History Graph

Daily Weather History Graph

Search for Another Location

Airport:

Trip Planner

Search our weather history database for the weather conditions in past years. The results will help you decide how hot, cold, wet, or windy it might be!

Date:

Astronomy

Jan. 16, 2013 Rise Set
Actual Time 7:49 AM EST 5:31 PM EST
Civil Twilight 7:19 AM EST 6:01 PM EST
Nautical Twilight 6:46 AM EST 6:34 PM EST
Astronomical Twilight 6:14 AM EST 7:06 PM EST
Moon 10:26 AM EST (1/16) 11:21 PM EST (1/16)
Length of Visible Light 10h 41m
Length of Day
9h 42m
Waxing Crescent, 28% of the Moon is Illuminated
Jan 16
Waxing Crescent
Jan 18
First Quarter
Jan 26
Full
Feb 3
Last Quarter
Feb 10
New

Hourly Weather History & Observations

Time (EST) Temp. Windchill Dew Point Humidity Pressure Visibility Wind Dir Wind Speed Gust Speed Precip Events Conditions
12:34 AM 32.0 °F 27.5 °F 24.8 °F 75% 30.07 in 10.0 mi NNE 4.6 mph - N/A   Overcast
12:53 AM 30.9 °F 27.5 °F 24.1 °F 76% 30.09 in 4.0 mi NE 3.5 mph - 0.00 in Snow Light Snow
1:02 AM 30.2 °F 25.4 °F 24.8 °F 80% 30.05 in 4.0 mi NE 4.6 mph - 0.00 in Snow Light Snow
1:53 AM 30.9 °F 27.5 °F 25.0 °F 79% 30.05 in 8.0 mi East 3.5 mph - 0.00 in   Overcast
3:01 AM 30.2 °F 26.7 °F 26.6 °F 86% 30.04 in 8.0 mi North 3.5 mph - N/A   Overcast
3:31 AM 30.2 °F - 26.6 °F 86% 30.03 in 7.0 mi Calm Calm - N/A   Overcast
3:46 AM 30.2 °F 25.4 °F 26.6 °F 86% 30.04 in 7.0 mi North 4.6 mph - N/A   Overcast
4:53 AM 30.9 °F - 25.0 °F 79% 29.99 in 8.0 mi Calm Calm - N/A   Overcast
5:53 AM 30.9 °F 27.5 °F 26.1 °F 82% 30.00 in 8.0 mi NNW 3.5 mph - N/A   Overcast
7:06 AM 30.2 °F - 24.8 °F 80% 29.97 in 8.0 mi Calm Calm - N/A   Overcast
7:53 AM 32.0 °F - 25.0 °F 75% 29.99 in 9.0 mi Calm Calm - N/A   Overcast
8:26 AM 32.0 °F - 24.8 °F 75% 29.99 in 7.0 mi Calm Calm - N/A   Overcast
8:53 AM 32.0 °F - 25.0 °F 75% 30.01 in 7.0 mi Calm Calm - N/A   Overcast
9:53 AM 32.0 °F 26.4 °F 25.0 °F 75% 30.03 in 7.0 mi West 5.8 mph - N/A   Overcast
10:22 AM 32.0 °F 26.4 °F 26.6 °F 80% 30.00 in 6.0 mi WSW 5.8 mph - N/A   Haze
10:53 AM 33.1 °F 27.7 °F 26.1 °F 75% 30.04 in 6.0 mi WSW 5.8 mph - N/A   Haze
11:53 AM 33.1 °F 27.7 °F 26.1 °F 75% 30.01 in 7.0 mi West 5.8 mph - N/A   Overcast
12:53 PM 33.1 °F 24.9 °F 27.0 °F 78% 29.99 in 6.0 mi West 10.4 mph - N/A   Haze
1:53 PM 34.0 °F 28.0 °F 27.0 °F 75% 29.97 in 5.0 mi West 6.9 mph - N/A   Haze
2:53 PM 35.1 °F 27.4 °F 27.0 °F 72% 30.00 in 7.0 mi West 10.4 mph - N/A   Overcast
3:53 PM 35.1 °F 28.6 °F 27.0 °F 72% 30.01 in 7.0 mi WSW 8.1 mph - N/A   Partly Cloudy
4:53 PM 34.0 °F 27.2 °F 28.0 °F 79% 30.03 in 5.0 mi SSW 8.1 mph - N/A   Haze
5:53 PM 32.0 °F 26.4 °F 28.0 °F 85% 30.04 in 6.0 mi SSW 5.8 mph - N/A   Clear
6:53 PM 32.0 °F 24.8 °F 28.0 °F 85% 30.04 in 5.0 mi SSW 8.1 mph - N/A   Partly Cloudy
7:53 PM 32.0 °F 26.4 °F 28.0 °F 85% 30.06 in 5.0 mi SW 5.8 mph - N/A   Clear
8:53 PM 32.0 °F 26.4 °F 27.0 °F 82% 30.06 in 7.0 mi SW 5.8 mph - N/A   Clear
9:53 PM 32.0 °F 24.8 °F 27.0 °F 82% 30.07 in 7.0 mi SW 8.1 mph - N/A   Clear
10:53 PM 32.0 °F 26.4 °F 27.0 °F 82% 30.06 in 7.0 mi SW 5.8 mph - N/A   Clear
11:53 PM 32.0 °F 26.4 °F 26.1 °F 79% 30.09 in 9.0 mi WSW 5.8 mph - N/A   Clear